| time (UTC) | temp F | wind direction | speed MPH | gust MPH | rain 1hr in | rain 24hr in | rain mn in | humidity % | barometer mb |
| 20260504130331 | 49 | 40 | 1.0 | 1.0 | 0.00 | 0.00 | 0.00 | 84 | 1017.2 |
| 20260504120254 | 42 | 40 | 0.0 | 0.0 | 0.00 | 0.00 | 0.00 | 96 | 1017.0 |
| 20260504110218 | 41 | 40 | 0.0 | 0.0 | 0.00 | 0.00 | 0.00 | 95 | 1017.0 |
| 20260504100142 | 42 | 40 | 0.0 | 0.0 | 0.00 | 0.00 | 0.00 | 95 | 1016.5 |
| 20260504090104 | 42 | 40 | 0.0 | 0.0 | 0.00 | 0.00 | 0.00 | 94 | 1016.6 |
| 20260504081535 | 43 | 40 | 0.0 | 0.0 | 0.00 | 0.00 | 0.00 | 94 | 1016.6 |
| 20260504081030 | 43 | 40 | 0.0 | 0.0 | 0.00 | 0.00 | 0.00 | 94 | 1016.6 |
| 20260504080527 | 43 | 40 | 0.0 | 0.0 | 0.00 | 0.00 | 0.00 | 94 | 1016.7 |
| 20260504050340 | 47 | 40 | 0.0 | 0.0 | 0.00 | 0.00 | 0.00 | 89 | 1017.5 |
| 20260504045837 | 47 | 40 | 0.0 | 0.0 | 0.00 | 0.00 | 0.00 | 89 | 1017.7 |
| 20260504045332 | 47 | 40 | 0.0 | 0.0 | 0.00 | 0.00 | 0.00 | 89 | 1017.6 |
| 20260504044829 | 47 | 40 | 0.0 | 0.0 | 0.00 | 0.00 | 0.00 | 88 | 1017.6 |
| 20260504044327 | 48 | 40 | 0.0 | 0.0 | 0.00 | 0.00 | 0.00 | 87 | 1017.5 |
| 20260504043824 | 48 | 40 | 0.0 | 0.0 | 0.00 | 0.00 | 0.00 | 87 | 1017.4 |
| 20260504043320 | 48 | 40 | 0.0 | 0.0 | 0.00 | 0.00 | 0.00 | 87 | 1017.7 |
| 20260504042818 | 48 | 40 | 0.0 | 0.0 | 0.00 | 0.00 | 0.00 | 88 | 1017.8 |
| 20260504042314 | 48 | 40 | 0.0 | 0.0 | 0.00 | 0.00 | 0.00 | 88 | 1018.0 |
| 20260504041811 | 48 | 40 | 0.0 | 0.0 | 0.00 | 0.00 | 0.00 | 89 | 1018.0 |
| 20260504041307 | 48 | 40 | 0.0 | 0.0 | 0.00 | 0.00 | 0.00 | 88 | 1018.1 |
| 20260504040803 | 49 | 40 | 0.0 | 0.0 | 0.00 | 0.00 | 0.00 | 87 | 1018.0 |
| 20260504040301 | 49 | 40 | 0.0 | 0.0 | 0.00 | 0.00 | 0.00 | 87 | 1017.9 |
| 20260504035756 | 49 | 40 | 0.0 | 0.0 | 0.00 | 0.00 | 0.00 | 87 | 1017.9 |
| 20260504035253 | 49 | 40 | 0.0 | 0.0 | 0.00 | 0.00 | 0.00 | 86 | 1017.9 |
| 20260504034751 | 49 | 40 | 0.0 | 0.0 | 0.00 | 0.00 | 0.00 | 85 | 1018.1 |
| 20260504034248 | 49 | 40 | 0.0 | 0.0 | 0.00 | 0.00 | 0.00 | 84 | 1018.0 |
| 20260504033746 | 49 | 40 | 0.0 | 0.0 | 0.00 | 0.00 | 0.00 | 84 | 1018.0 |
| 20260504033243 | 50 | 40 | 0.0 | 0.0 | 0.00 | 0.00 | 0.00 | 83 | 1018.1 |
| 20260504032740 | 50 | 40 | 0.0 | 0.0 | 0.00 | 0.00 | 0.00 | 82 | 1017.9 |
| 20260504032237 | 50 | 40 | 0.0 | 0.0 | 0.00 | 0.00 | 0.00 | 82 | 1017.9 |
| 20260504031733 | 50 | 40 | 0.0 | 0.0 | 0.00 | 0.00 | 0.00 | 82 | 1017.7 |
| 20260504031231 | 50 | 40 | 0.0 | 0.0 | 0.00 | 0.00 | 0.00 | 82 | 1017.8 |
| 20260504030727 | 50 | 40 | 0.0 | 0.0 | 0.00 | 0.00 | 0.00 | 81 | 1018.0 |
| 20260504030224 | 50 | 40 | 0.0 | 0.0 | 0.00 | 0.00 | 0.00 | 81 | 1017.9 |
| 20260504025721 | 51 | 40 | 0.0 | 0.0 | 0.00 | 0.00 | 0.00 | 80 | 1017.9 |
| 20260504025217 | 51 | 40 | 0.0 | 0.0 | 0.00 | 0.00 | 0.00 | 79 | 1017.8 |
| 20260504024715 | 51 | 40 | 0.0 | 0.0 | 0.00 | 0.00 | 0.00 | 79 | 1018.0 |
| 20260504024211 | 51 | 40 | 0.0 | 0.0 | 0.00 | 0.00 | 0.00 | 77 | 1017.8 |
| 20260504023708 | 52 | 40 | 1.0 | 0.0 | 0.00 | 0.00 | 0.00 | 75 | 1017.7 |
| 20260504023204 | 52 | 40 | 0.0 | 0.0 | 0.00 | 0.00 | 0.00 | 73 | 1017.9 |
| 20260504022700 | 52 | 39 | 0.0 | 0.0 | 0.00 | 0.00 | 0.00 | 73 | 1017.6 |
| 20260504022156 | 52 | 40 | 0.0 | 0.0 | 0.00 | 0.00 | 0.00 | 74 | 1017.7 |
| 20260504021654 | 53 | 40 | 0.0 | 0.0 | 0.00 | 0.00 | 0.00 | 73 | 1017.3 |
| 20260504021150 | 53 | 40 | 0.0 | 0.0 | 0.00 | 0.00 | 0.00 | 72 | 1017.3 |
| 20260504020648 | 53 | 39 | 0.0 | 0.0 | 0.00 | 0.00 | 0.00 | 70 | 1017.2 |
| 20260504020143 | 54 | 39 | 0.0 | 0.0 | 0.00 | 0.00 | 0.00 | 68 | 1017.3 |
| 20260504015641 | 54 | 39 | 0.0 | 0.0 | 0.00 | 0.00 | 0.00 | 67 | 1017.3 |
| 20260504015137 | 55 | 39 | 0.0 | 0.0 | 0.00 | 0.00 | 0.00 | 65 | 1017.5 |
| 20260504014632 | 55 | 39 | 0.0 | 0.0 | 0.00 | 0.00 | 0.00 | 65 | 1017.4 |
| 20260504014130 | 55 | 39 | 0.0 | 0.0 | 0.00 | 0.00 | 0.00 | 62 | 1017.0 |
| 20260504013628 | 56 | 39 | 0.0 | 0.0 | 0.00 | 0.00 | 0.00 | 61 | 1017.0 |
| 20260504013124 | 56 | 39 | 0.0 | 0.0 | 0.00 | 0.00 | 0.00 | 62 | 1017.1 |
| 20260504012621 | 56 | 39 | 0.0 | 0.0 | 0.00 | 0.00 | 0.00 | 61 | 1017.1 |
| 20260504012120 | 57 | 39 | 0.0 | 0.0 | 0.00 | 0.00 | 0.00 | 63 | 1017.2 |
| 20260504011616 | 57 | 39 | 0.0 | 0.0 | 0.00 | 0.00 | 0.00 | 62 | 1016.8 |
| 20260504011112 | 57 | 39 | 1.0 | 1.0 | 0.00 | 0.00 | 0.00 | 61 | 1016.8 |
| 20260504010608 | 57 | 40 | 1.0 | 1.0 | 0.00 | 0.00 | 0.00 | 61 | 1016.8 |
| 20260504010104 | 57 | 39 | 1.0 | 1.0 | 0.00 | 0.00 | 0.00 | 61 | 1016.9 |
| 20260504005601 | 58 | 40 | 0.0 | 0.0 | 0.00 | 0.00 | 0.00 | 60 | 1016.8 |
| 20260504005058 | 58 | 39 | 0.0 | 0.0 | 0.00 | 0.00 | 0.00 | 58 | 1016.6 |
| 20260504004556 | 59 | 40 | 0.0 | 0.0 | 0.00 | 0.00 | 0.00 | 59 | 1016.5 |
| 20260504004053 | 59 | 40 | 0.0 | 0.0 | 0.00 | 0.00 | 0.00 | 58 | 1016.5 |
| 20260504003549 | 60 | 39 | 0.0 | 0.0 | 0.00 | 0.00 | 0.00 | 57 | 1016.5 |
| 20260504003046 | 60 | 39 | 1.0 | 1.0 | 0.00 | 0.00 | 0.00 | 56 | 1016.6 |
| 20260504002543 | 60 | 40 | 0.0 | 0.0 | 0.00 | 0.00 | 0.00 | 57 | 1016.5 |
| 20260504002040 | 60 | 40 | 0.0 | 0.0 | 0.00 | 0.00 | 0.00 | 55 | 1016.5 |
| 20260504001538 | 61 | 40 | 0.0 | 0.0 | 0.00 | 0.00 | 0.00 | 51 | 1016.5 |
| 20260504001034 | 61 | 40 | 0.0 | 0.0 | 0.00 | 0.00 | 0.00 | 49 | 1016.3 |
| 20260504000531 | 62 | 39 | 0.0 | 0.0 | 0.00 | 0.00 | 0.00 | 49 | 1016.3 |
| 20260504000029 | 62 | 39 | 0.0 | 0.0 | 0.00 | 0.00 | 0.00 | 48 | 1016.5 |
| 20260503235527 | 63 | 39 | 0.0 | 0.0 | 0.00 | 0.00 | 0.00 | 48 | 1016.6 |
| 20260503235023 | 63 | 39 | 0.0 | 0.0 | 0.00 | 0.00 | 0.00 | 47 | 1016.6 |
| 20260503234521 | 64 | 39 | 0.0 | 0.0 | 0.00 | 0.00 | 0.00 | 45 | 1016.6 |
| 20260503234019 | 64 | 40 | 1.0 | 1.0 | 0.00 | 0.00 | 0.00 | 45 | 1016.3 |
| 20260503233515 | 64 | 40 | 0.0 | 0.0 | 0.00 | 0.00 | 0.00 | 44 | 1016.3 |
| 20260503233011 | 64 | 39 | 0.0 | 0.0 | 0.00 | 0.00 | 0.00 | 46 | 1016.2 |
| 20260503232508 | 65 | 38 | 0.0 | 0.0 | 0.00 | 0.00 | 0.00 | 44 | 1016.6 |
| 20260503232006 | 65 | 46 | 1.0 | 1.0 | 0.00 | 0.00 | 0.00 | 43 | 1016.3 |
| 20260503231504 | 65 | 47 | 0.0 | 0.0 | 0.00 | 0.00 | 0.00 | 43 | 1016.5 |
| 20260503231000 | 65 | 47 | 0.0 | 0.0 | 0.00 | 0.00 | 0.00 | 41 | 1016.3 |
| 20260503230457 | 65 | 46 | 0.0 | 0.0 | 0.00 | 0.00 | 0.00 | 42 | 1016.5 |
| 20260503225954 | 66 | 46 | 0.0 | 0.0 | 0.00 | 0.00 | 0.00 | 40 | 1016.6 |
| 20260503225451 | 66 | 46 | 0.0 | 0.0 | 0.00 | 0.00 | 0.00 | 43 | 1016.8 |
| 20260503224946 | 66 | 46 | 0.0 | 0.0 | 0.00 | 0.00 | 0.00 | 39 | 1016.6 |
| 20260503224443 | 66 | 46 | 0.0 | 0.0 | 0.00 | 0.00 | 0.00 | 38 | 1016.3 |
| 20260503223941 | 66 | 46 | 0.0 | 0.0 | 0.00 | 0.00 | 0.00 | 40 | 1016.5 |
| 20260503223439 | 66 | 46 | 0.0 | 0.0 | 0.00 | 0.00 | 0.00 | 39 | 1016.5 |
| 20260503222934 | 66 | 47 | 1.0 | 1.0 | 0.00 | 0.00 | 0.00 | 37 | 1016.7 |
| 20260503222433 | 66 | 36 | 1.0 | 1.0 | 0.00 | 0.00 | 0.00 | 39 | 1016.6 |
| 20260503221931 | 67 | 36 | 0.0 | 0.0 | 0.00 | 0.00 | 0.00 | 39 | 1017.0 |
| 20260503221429 | 67 | 71 | 0.0 | 0.0 | 0.00 | 0.00 | 0.00 | 39 | 1016.6 |
| 20260503220925 | 67 | 68 | 0.0 | 1.0 | 0.00 | 0.00 | 0.00 | 41 | 1016.5 |
| 20260503220421 | 67 | 68 | 1.0 | 1.0 | 0.00 | 0.00 | 0.00 | 41 | 1016.6 |
| 20260503215919 | 67 | 68 | 1.0 | 1.0 | 0.00 | 0.00 | 0.00 | 39 | 1016.8 |
| 20260503215416 | 67 | 69 | 0.0 | 0.0 | 0.00 | 0.00 | 0.00 | 38 | 1016.8 |
| 20260503214913 | 67 | 63 | 1.0 | 1.0 | 0.00 | 0.00 | 0.00 | 36 | 1017.0 |
| 20260503214411 | 67 | 55 | 1.0 | 0.0 | 0.00 | 0.00 | 0.00 | 38 | 1016.8 |
| 20260503213908 | 67 | 58 | 0.0 | 0.0 | 0.00 | 0.00 | 0.00 | 38 | 1016.9 |
| 20260503213406 | 67 | 59 | 1.0 | 2.0 | 0.00 | 0.00 | 0.00 | 39 | 1016.9 |
| 20260503212902 | 67 | 37 | 1.0 | 1.0 | 0.00 | 0.00 | 0.00 | 37 | 1017.0 |
| 20260503212400 | 67 | 71 | 1.0 | 1.0 | 0.00 | 0.00 | 0.00 | 39 | 1017.2 |
| 20260503211857 | 67 | 49 | 0.0 | 0.0 | 0.00 | 0.00 | 0.00 | 37 | 1017.0 |
| 20260503211354 | 68 | 34 | 1.0 | 2.0 | 0.00 | 0.00 | 0.00 | 39 | 1017.1 |
| 20260503210848 | 68 | 41 | 1.0 | 1.0 | 0.00 | 0.00 | 0.00 | 38 | 1017.2 |
| 20260503210346 | 68 | 44 | 1.0 | 1.0 | 0.00 | 0.00 | 0.00 | 38 | 1017.2 |
| 20260503205841 | 67 | 48 | 1.0 | 2.0 | 0.00 | 0.00 | 0.00 | 40 | 1017.1 |
| 20260503205338 | 67 | 41 | 0.0 | 0.0 | 0.00 | 0.00 | 0.00 | 37 | 1016.9 |
| 20260503204834 | 68 | 26 | 2.0 | 2.0 | 0.00 | 0.00 | 0.00 | 37 | 1017.2 |
| 20260503204332 | 68 | 44 | 0.0 | 1.0 | 0.00 | 0.00 | 0.00 | 35 | 1017.3 |
| 20260503203829 | 68 | 52 | 1.0 | 2.0 | 0.00 | 0.00 | 0.00 | 35 | 1017.3 |
| 20260503203326 | 68 | 30 | 1.0 | 1.0 | 0.00 | 0.00 | 0.00 | 36 | 1017.5 |
| 20260503202823 | 68 | 16 | 1.0 | 1.0 | 0.00 | 0.00 | 0.00 | 34 | 1017.6 |
| 20260503202321 | 68 | 38 | 2.0 | 3.0 | 0.00 | 0.00 | 0.00 | 34 | 1017.5 |
| 20260503201819 | 68 | 58 | 1.0 | 1.0 | 0.00 | 0.00 | 0.00 | 33 | 1017.6 |
| 20260503201316 | 68 | 65 | 2.0 | 1.0 | 0.00 | 0.00 | 0.00 | 34 | 1017.9 |
| 20260503200814 | 68 | 30 | 1.0 | 1.0 | 0.00 | 0.00 | 0.00 | 36 | 1017.9 |
| 20260503200309 | 69 | 2 | 3.0 | 3.0 | 0.00 | 0.00 | 0.00 | 35 | 1018.0 |
| 20260503195807 | 69 | 43 | 1.0 | 1.0 | 0.00 | 0.00 | 0.00 | 34 | 1018.1 |
| 20260503195304 | 70 | 70 | 1.0 | 2.0 | 0.00 | 0.00 | 0.00 | 33 | 1018.1 |
| 20260503194800 | 70 | 35 | 1.0 | 2.0 | 0.00 | 0.00 | 0.00 | 38 | 1018.2 |
| 20260503194256 | 70 | 71 | 2.0 | 2.0 | 0.00 | 0.00 | 0.00 | 37 | 1018.3 |
| 20260503193753 | 69 | 54 | 1.0 | 1.0 | 0.00 | 0.00 | 0.00 | 38 | 1018.2 |
| 20260503193249 | 69 | 11 | 2.0 | 2.0 | 0.00 | 0.00 | 0.00 | 36 | 1018.4 |
| 20260503192745 | 69 | 37 | 1.0 | 1.0 | 0.00 | 0.00 | 0.00 | 37 | 1018.5 |
| 20260503192240 | 69 | 73 | 0.0 | 0.0 | 0.00 | 0.00 | 0.00 | 37 | 1018.4 |
| 20260503191737 | 69 | 81 | 1.0 | 2.0 | 0.00 | 0.00 | 0.00 | 36 | 1018.6 |
| 20260503191234 | 69 | 68 | 0.0 | 1.0 | 0.00 | 0.00 | 0.00 | 39 | 1018.6 |
| 20260503190731 | 68 | 103 | 0.0 | 0.0 | 0.00 | 0.00 | 0.00 | 38 | 1018.7 |
| 20260503190227 | 68 | 56 | 1.0 | 1.0 | 0.00 | 0.00 | 0.00 | 37 | 1018.7 |
| 20260503185725 | 68 | 46 | 1.0 | 1.0 | 0.00 | 0.00 | 0.00 | 34 | 1019.1 |
| 20260503185220 | 68 | 40 | 1.0 | 1.0 | 0.00 | 0.00 | 0.00 | 35 | 1019.1 |
| 20260503184715 | 68 | 58 | 2.0 | 2.0 | 0.00 | 0.00 | 0.00 | 36 | 1019.1 |
| 20260503184212 | 68 | 27 | 1.0 | 1.0 | 0.00 | 0.00 | 0.00 | 36 | 1019.2 |
| 20260503183708 | 67 | 29 | 1.0 | 1.0 | 0.00 | 0.00 | 0.00 | 34 | 1019.2 |
| 20260503183206 | 67 | 82 | 1.0 | 1.0 | 0.00 | 0.00 | 0.00 | 36 | 1019.1 |
| 20260503182704 | 67 | 45 | 1.0 | 1.0 | 0.00 | 0.00 | 0.00 | 38 | 1019.1 |
| 20260503182202 | 67 | 35 | 1.0 | 1.0 | 0.00 | 0.00 | 0.00 | 37 | 1019.2 |
| 20260503181658 | 67 | 53 | 1.0 | 1.0 | 0.00 | 0.00 | 0.00 | 37 | 1019.2 |
| 20260503181155 | 67 | 75 | 1.0 | 1.0 | 0.00 | 0.00 | 0.00 | 37 | 1019.5 |
| 20260503180651 | 67 | 86 | 1.0 | 1.0 | 0.00 | 0.00 | 0.00 | 39 | 1019.4 |
| 20260503180150 | 66 | 60 | 1.0 | 1.0 | 0.00 | 0.00 | 0.00 | 42 | 1019.5 |
| 20260503175647 | 66 | 47 | 2.0 | 2.0 | 0.00 | 0.00 | 0.00 | 43 | 1019.6 |
| 20260503175144 | 66 | 57 | 2.0 | 2.0 | 0.00 | 0.00 | 0.00 | 40 | 1019.5 |
| 20260503174640 | 66 | 48 | 1.0 | 1.0 | 0.00 | 0.00 | 0.00 | 41 | 1019.5 |
| 20260503174137 | 66 | 43 | 1.0 | 1.0 | 0.00 | 0.00 | 0.00 | 39 | 1019.6 |
| 20260503173632 | 67 | 57 | 1.0 | 1.0 | 0.00 | 0.00 | 0.00 | 40 | 1019.7 |
| 20260503173129 | 66 | 44 | 1.0 | 1.0 | 0.00 | 0.00 | 0.00 | 45 | 1019.8 |
| 20260503172626 | 65 | 51 | 0.0 | 1.0 | 0.00 | 0.00 | 0.00 | 40 | 1019.6 |
| 20260503172124 | 65 | 63 | 1.0 | 1.0 | 0.00 | 0.00 | 0.00 | 42 | 1019.6 |
| 20260503171620 | 64 | 81 | 0.0 | 0.0 | 0.00 | 0.00 | 0.00 | 45 | 1019.9 |
| 20260503171117 | 64 | 108 | 2.0 | 2.0 | 0.00 | 0.00 | 0.00 | 51 | 1019.7 |
| 20260503170614 | 65 | 97 | 2.0 | 2.0 | 0.00 | 0.00 | 0.00 | 48 | 1019.9 |
| 20260503170111 | 64 | 82 | 1.0 | 1.0 | 0.00 | 0.00 | 0.00 | 46 | 1020.0 |
| 20260503151006 | 59 | 64 | 2.0 | 2.0 | 0.00 | 0.00 | 0.00 | 53 | 1020.8 |
| 20260503150503 | 58 | 41 | 1.0 | 1.0 | 0.00 | 0.00 | 0.00 | 56 | 1020.8 |